{"data":{"norad_id":57991,"epoch":"2026-09-20T02:59:25.183392Z","epoch_age_seconds":170118,"freshness":"FRESH","line1":"1 57991U 23153A   26263.12459703 -.00000527  00000+0 -96136-5 0  9990","line2":"2 57991  43.0055  48.9098 0001864 260.8067  99.2574 15.27573335164532","mean_motion":15.27573335,"eccentricity":0.0001864,"inclination_deg":43.0055,"raan_deg":48.9098,"arg_perigee_deg":260.8067,"mean_anomaly_deg":99.2574,"bstar":-9.6136e-6,"rev_number":16453,"period_min":94.267160011666,"perigee_km":481.79012471156,"apogee_km":484.34798232831,"semimajor_km":6861.2060535199,"source":"CELESTRAK","updated_at":"2026-09-21T09:00:33.752892Z"}}